Stündliche Wetter Abay

Heute, 5 März, Freitag

Zeit Temperatur Niederschläge Wind Luftdruck Luftfeuchtigkeit
00:00 -15°C° 0 mm 1 m/S 668 mmHg 78%
01:00 -16°C° 0 mm 2 m/S 667 mmHg 77%
02:00 -16°C° 0 mm 2 m/S 667 mmHg 76%
03:00 -16°C° 0 mm 2 m/S 667 mmHg 75%
04:00 -16°C° 0 mm 2 m/S 666 mmHg 74%
05:00 -15°C° 0 mm 2 m/S 666 mmHg 73%
06:00 -12°C° 0 mm 1 m/S 666 mmHg 73%
07:00 -10°C° 0.2 mm 1 m/S 666 mmHg 79%
08:00 -10°C° 0.2 mm 2 m/S 666 mmHg 85%
09:00 -8°C° 0.2 mm 2 m/S 666 mmHg 91%
10:00 -7°C° 0.8 mm 2 m/S 667 mmHg 90%
11:00 -7°C° 0.8 mm 3 m/S 668 mmHg 90%
12:00 -5°C° 0 mm 4 m/S 669 mmHg 89%
13:00 -7°C° 0.1 mm 5 m/S 669 mmHg 86%
14:00 -7°C° 0.1 mm 5 m/S 670 mmHg 83%
15:00 -7°C° 0.1 mm 5 m/S 671 mmHg 79%
16:00 -9°C° 0 mm 4 m/S 671 mmHg 83%
17:00 -10°C° 0 mm 4 m/S 672 mmHg 86%
18:00 -12°C° 0 mm 3 m/S 672 mmHg 89%
19:00 -13°C° 0 mm 3 m/S 672 mmHg 90%
20:00 -14°C° 0 mm 3 m/S 673 mmHg 91%
21:00 -14°C° 0 mm 3 m/S 673 mmHg 92%
22:00 -14°C° 0 mm 3 m/S 674 mmHg 92%
23:00 -15°C° 0 mm 3 m/S 674 mmHg 92%

Morgen, 6 März, Samstag

Zeit Temperatur Niederschläge Wind Luftdruck Luftfeuchtigkeit
00:00 -15°C° 0 mm 3 m/S 674 mmHg 92%
01:00 -15°C° 0 mm 3 m/S 674 mmHg 92%
02:00 -15°C° 0 mm 3 m/S 674 mmHg 93%
03:00 -15°C° 0 mm 3 m/S 673 mmHg 93%
04:00 -15°C° 0 mm 3 m/S 673 mmHg 93%
05:00 -16°C° 0 mm 3 m/S 673 mmHg 93%
06:00 -16°C° 0 mm 3 m/S 673 mmHg 93%
07:00 -14°C° 0 mm 2 m/S 673 mmHg 89%
08:00 -13°C° 0 mm 2 m/S 673 mmHg 85%
09:00 -10°C° 0 mm 2 m/S 672 mmHg 81%
10:00 -9°C° 0 mm 2 m/S 672 mmHg 75%
11:00 -8°C° 0 mm 3 m/S 672 mmHg 69%
12:00 -6°C° 0 mm 3 m/S 671 mmHg 64%
13:00 -5°C° 0 mm 3 m/S 670 mmHg 63%
14:00 -5°C° 0 mm 3 m/S 670 mmHg 63%
15:00 -4°C° 0 mm 3 m/S 669 mmHg 62%
16:00 -5°C° 0 mm 2 m/S 669 mmHg 65%
17:00 -7°C° 0 mm 2 m/S 668 mmHg 69%
18:00 -9°C° 0 mm 2 m/S 667 mmHg 72%
19:00 -10°C° 0 mm 2 m/S 667 mmHg 71%
20:00 -12°C° 0 mm 2 m/S 667 mmHg 70%
21:00 -13°C° 0 mm 2 m/S 667 mmHg 69%
22:00 -13°C° 0 mm 2 m/S 667 mmHg 69%
23:00 -13°C° 0 mm 2 m/S 667 mmHg 69%

übermorgen, 7 März, Sonntag

Zeit Temperatur Niederschläge Wind Luftdruck Luftfeuchtigkeit
00:00 -13°C° 0 mm 2 m/S 667 mmHg 69%
01:00 -13°C° 0 mm 2 m/S 667 mmHg 70%
02:00 -13°C° 0 mm 2 m/S 667 mmHg 70%
03:00 -12°C° 0 mm 2 m/S 667 mmHg 71%
04:00 -12°C° 0 mm 2 m/S 667 mmHg 71%
05:00 -12°C° 0 mm 2 m/S 667 mmHg 70%
06:00 -10°C° 0 mm 1 m/S 667 mmHg 70%
07:00 -9°C° 0 mm 1 m/S 668 mmHg 71%
08:00 -8°C° 0 mm 1 m/S 668 mmHg 73%
09:00 -6°C° 0 mm 1 m/S 668 mmHg 74%
10:00 -3°C° 0 mm 1 m/S 669 mmHg 73%
11:00 -4°C° 0 mm 2 m/S 669 mmHg 72%
12:00 -2°C° 0 mm 2 m/S 669 mmHg 70%
13:00 -2°C° 0 mm 2 m/S 669 mmHg 69%
14:00 -1°C° 0 mm 2 m/S 669 mmHg 68%
15:00 -1°C° 0 mm 2 m/S 669 mmHg 67%
16:00 -2°C° 0 mm 2 m/S 669 mmHg 71%
17:00 -4°C° 0 mm 2 m/S 669 mmHg 75%
18:00 -6°C° 0 mm 2 m/S 669 mmHg 78%
19:00 -7°C° 0 mm 2 m/S 669 mmHg 77%
20:00 -7°C° 0 mm 1 m/S 669 mmHg 76%
21:00 -8°C° 0 mm 1 m/S 669 mmHg 75%
22:00 -9°C° 0 mm 1 m/S 669 mmHg 75%
23:00 -9°C° 0 mm 1 m/S 669 mmHg 74%

8 März, Montag

Zeit Temperatur Niederschläge Wind Luftdruck Luftfeuchtigkeit
00:00 -9°C° 0 mm 1 m/S 669 mmHg 74%
01:00 -10°C° 0 mm 1 m/S 669 mmHg 74%
02:00 -10°C° 0 mm 1 m/S 668 mmHg 73%
03:00 -10°C° 0 mm 1 m/S 668 mmHg 73%
04:00 -10°C° 0 mm 1 m/S 668 mmHg 73%
05:00 -10°C° 0 mm 1 m/S 668 mmHg 73%
06:00 -11°C° 0 mm 1 m/S 668 mmHg 73%
07:00 -9°C° 0 mm 1 m/S 668 mmHg 74%
08:00 -7°C° 0 mm 1 m/S 668 mmHg 75%
09:00 -4°C° 0 mm 1 m/S 668 mmHg 76%
10:00 -4°C° 0 mm 2 m/S 668 mmHg 75%
11:00 -2°C° 0 mm 2 m/S 668 mmHg 74%
12:00 0°C° 0 mm 3 m/S 668 mmHg 73%
13:00 0°C° 0 mm 3 m/S 667 mmHg 77%
14:00 0°C° 0 mm 3 m/S 667 mmHg 81%
15:00 0°C° 0 mm 3 m/S 667 mmHg 85%
16:00 -1°C° 0.2 mm 3 m/S 667 mmHg 88%
17:00 -2°C° 0.2 mm 3 m/S 666 mmHg 90%
18:00 -4°C° 0.2 mm 3 m/S 666 mmHg 93%
19:00 -5°C° 0.2 mm 3 m/S 667 mmHg 93%
20:00 -6°C° 0.2 mm 3 m/S 667 mmHg 94%
21:00 -7°C° 0.2 mm 3 m/S 668 mmHg 94%
22:00 -7°C° 0.1 mm 3 m/S 668 mmHg 94%
23:00 -7°C° 0.1 mm 3 m/S 668 mmHg 94%

9 März, Dienstag

Zeit Temperatur Niederschläge Wind Luftdruck Luftfeuchtigkeit
00:00 -8°C° 0.1 mm 3 m/S 668 mmHg 94%
01:00 -8°C° 0.1 mm 3 m/S 669 mmHg 94%
02:00 -8°C° 0.1 mm 3 m/S 669 mmHg 94%
03:00 -7°C° 0.1 mm 2 m/S 669 mmHg 94%
04:00 -8°C° 0 mm 2 m/S 670 mmHg 94%
05:00 -8°C° 0 mm 2 m/S 670 mmHg 93%
06:00 -8°C° 0 mm 2 m/S 671 mmHg 93%
07:00 -8°C° 0 mm 3 m/S 671 mmHg 92%
08:00 -7°C° 0 mm 3 m/S 672 mmHg 91%
09:00 -6°C° 0 mm 3 m/S 672 mmHg 90%
10:00 -4°C° 0.1 mm 3 m/S 672 mmHg 87%
11:00 -2°C° 0.1 mm 3 m/S 672 mmHg 85%
12:00 -2°C° 0.1 mm 4 m/S 672 mmHg 82%
13:00 -2°C° 0.1 mm 4 m/S 672 mmHg 82%
14:00 -1°C° 0.1 mm 3 m/S 672 mmHg 81%
15:00 0°C° 0.1 mm 3 m/S 671 mmHg 81%
16:00 -2°C° 0 mm 3 m/S 671 mmHg 84%
17:00 -3°C° 0 mm 2 m/S 670 mmHg 87%
18:00 -5°C° 0 mm 2 m/S 670 mmHg 90%
19:00 -6°C° 0 mm 2 m/S 670 mmHg 91%
20:00 -7°C° 0 mm 2 m/S 669 mmHg 92%
21:00 -8°C° 0 mm 2 m/S 669 mmHg 93%
22:00 -8°C° 0 mm 2 m/S 669 mmHg 92%
23:00 -8°C° 0 mm 2 m/S 669 mmHg 91%

10 März, Mittwoch

Zeit Temperatur Niederschläge Wind Luftdruck Luftfeuchtigkeit
00:00 -8°C° 0 mm 2 m/S 668 mmHg 91%
01:00 -8°C° 0 mm 2 m/S 668 mmHg 90%
02:00 -8°C° 0 mm 2 m/S 668 mmHg 89%
03:00 -7°C° 0 mm 2 m/S 667 mmHg 88%
04:00 -7°C° 0 mm 2 m/S 667 mmHg 88%
05:00 -7°C° 0 mm 2 m/S 667 mmHg 89%
06:00 -6°C° 0 mm 2 m/S 667 mmHg 89%
07:00 -5°C° 0 mm 2 m/S 667 mmHg 88%
08:00 -4°C° 0 mm 2 m/S 667 mmHg 87%
09:00 -3°C° 0 mm 2 m/S 667 mmHg 87%
10:00 0°C° 0 mm 1 m/S 667 mmHg 87%
11:00 +1°C° 0 mm 1 m/S 667 mmHg 87%
12:00 +2°C° 0 mm 1 m/S 666 mmHg 86%
13:00 +3°C° 0 mm 1 m/S 666 mmHg 88%
14:00 +3°C° 0 mm 1 m/S 666 mmHg 89%
15:00 +4°C° 0 mm 1 m/S 666 mmHg 90%
16:00 +3°C° 0 mm 1 m/S 665 mmHg 89%
17:00 +1°C° 0 mm 1 m/S 665 mmHg 88%
18:00 0°C° 0 mm 1 m/S 664 mmHg 87%
19:00 0°C° 0 mm 1 m/S 664 mmHg 84%
20:00 -1°C° 0 mm 1 m/S 664 mmHg 82%
21:00 -3°C° 0 mm 2 m/S 664 mmHg 79%
22:00 -4°C° 0 mm 2 m/S 663 mmHg 78%
23:00 -4°C° 0 mm 2 m/S 663 mmHg 78%
Mehr zeigen

Wir brauchen deine Erlaubnis

Meteoprog und unser Service Anbieter werden persönliche Daten aufbewahren, so wie Cookies, Geräte Bezeichnung oder ähnliche Technologien von deinem Gerät und Prozess, so wie Persönliche Daten Inhalte und Werbungen, genauso wie social Media und den Verkehr zu analysieren.

  • Aufbewahrung und/oder Zugang zu deiner Geräte Informationen.

    Cookies, Geräte Bezeichnung oder andere Informationen, können aufbewahrt oder Zugang zu deinem Gerät erhalten, für den Grund, der oben angegeben wird.

  • Personalisierte Werbung und Inhalte, Messungen, Einblick in das Publikum und Produkt Entwicklung.

    Werbungen und Inhalte können personalisiert werden, basierend auf ein Profil. Mehr Daten können besser personalisierte Werbungen und Inhalte hinzufügen. Werbung und Inhalte können gezeigt und gemessen werden. Einblicke über das Publikum, welche die Werbung gesehen haben und den Inhalt, können abgeleitet werden. So wie Daten können genutzt werden, um es zu verbessern oder die Benutzer Erfahrung zu verbessern das System und die Software.

Wenn du “Ich stimme zu” klickst, erlaubst du uns, die Cookies zu benutzen die Geräte Bezeichnung, den Web oder ähnliche Technologien zu benutzen. Deine Settings, können in deinem Gerät bei deinem Browser geändert werden.

Für den bestimmten Zweck, berechtigten Interessen beruhen darauf, mehr als auf den Inhalt. Du kannst mehr darüber in unseren Privaten und Cookie Politik lesen.